This is the latest recevied weather packets stored in our database for station/object KC1TEM-13. If no packets are shown the sender has not sent any weather packets the latest 10 day(s).
| Time | Temp. | Humidity | Pressure | Rain* | Wind** | Luminosity | Snow |
|---|---|---|---|---|---|---|---|
| 1777858028 | 5.56° C | 57% | 1009.5 hPa | 0 mm | - | 0 W/m² | - |
| 1777857727 | 6.11° C | 57% | 1009.5 hPa | 0 mm | - | 0 W/m² | - |
| 1777857423 | 6.67° C | 56% | 1009.4 hPa | 0 mm | - | 0 W/m² | - |
| 1777857120 | 6.67° C | 53% | 1009.5 hPa | 0 mm | - | 0 W/m² | - |
| 1777856815 | 6.67° C | 52% | 1009.2 hPa | 0 mm | - | 0 W/m² | - |
| 1777856511 | 7.22° C | 50% | 1009.2 hPa | 0 mm | - | 0 W/m² | - |
| 1777856208 | 7.22° C | 50% | 1009.4 hPa | 0 mm | - | 0 W/m² | - |
| 1777855905 | 7.22° C | 50% | 1009.1 hPa | 0 mm | - | 0 W/m² | - |
| 1777855603 | 7.78° C | 50% | 1009.3 hPa | 0 mm | - | 0 W/m² | - |
| 1777855300 | 7.78° C | 50% | 1008.9 hPa | 0 mm | - | 0 W/m² | - |
| 1777854996 | 7.78° C | 47% | 1009 hPa | 0 mm | - | 0 W/m² | - |
| 1777854693 | 8.33° C | 46% | 1009.1 hPa | 0 mm | - | 0 W/m² | - |
| 1777854390 | 8.33° C | 46% | 1008.8 hPa | 0 mm | - | 0 W/m² | - |
| 1777854087 | 8.33° C | 45% | 1009 hPa | 0 mm | - | 0 W/m² | - |
| 1777853785 | 8.89° C | 45% | 1008.9 hPa | 0 mm | - | 0 W/m² | - |
| 1777853481 | 8.89° C | 44% | 1009 hPa | 0 mm | - | 0 W/m² | - |
| 1777853179 | 8.89° C | 44% | 1008.5 hPa | 0 mm | - | 0 W/m² | - |
| 1777852876 | 8.89° C | 43% | 1008.6 hPa | 0 mm | - | 0 W/m² | - |
| 1777852574 | 8.89° C | 44% | 1008.5 hPa | 0 mm | - | 1 W/m² | - |
| 1777852270 | 9.44° C | 43% | 1008.4 hPa | 0 mm | - | 2 W/m² | - |
| 1777851968 | 9.44° C | 42% | 1008.4 hPa | 0 mm | - | 3 W/m² | - |
| 1777851666 | 9.44° C | 42% | 1008.1 hPa | 0 mm | - | 4 W/m² | - |
| 1777851363 | 10° C | 42% | 1008.1 hPa | 0 mm | - | 6 W/m² | - |
| 1777851058 | 10° C | 41% | 1008.1 hPa | 0 mm | - | 8 W/m² | - |
| 1777850755 | 10° C | 41% | 1008.2 hPa | 0 mm | - | 10 W/m² | - |
* Rain latest hour (hover to see other rain measurements)
** Current wind speed in m/s (hover to see current wind gust speed)